| time (UTC) | temp F | wind direction | speed MPH | gust MPH | rain 1hr in | rain 24hr in | rain mn in | humidity % | barometer mb |
| 20260503205022 | 87 | 16 | 2.0 | 6.0 | 0.00 | 0.00 | 0.00 | 24 | 1003.8 |
| 20260503204521 | 87 | 69 | 3.0 | 7.0 | 0.00 | 0.00 | 0.00 | 27 | 1003.9 |
| 20260503204019 | 86 | 279 | 3.0 | 7.0 | 0.00 | 0.00 | 0.00 | 24 | 1003.9 |
| 20260503203519 | 86 | 42 | 3.0 | 6.0 | 0.00 | 0.00 | 0.00 | 26 | 1004.0 |
| 20260503203021 | 86 | 312 | 3.0 | 7.0 | 0.00 | 0.00 | 0.00 | 25 | 1004.1 |
| 20260503202517 | 86 | 51 | 2.0 | 6.0 | 0.00 | 0.00 | 0.00 | 25 | 1004.2 |
| 20260503202017 | 85 | 19 | 2.0 | 6.0 | 0.00 | 0.00 | 0.00 | 26 | 1004.3 |
| 20260503201515 | 85 | 35 | 0.0 | 6.0 | 0.00 | 0.00 | 0.00 | 26 | 1004.4 |
| 20260503201014 | 85 | 39 | 2.0 | 6.0 | 0.00 | 0.00 | 0.00 | 26 | 1004.4 |
| 20260503200514 | 85 | 10 | 2.0 | 4.0 | 0.00 | 0.00 | 0.00 | 27 | 1004.5 |
| 20260503200012 | 85 | 232 | 1.0 | 5.0 | 0.00 | 0.00 | 0.00 | 27 | 1004.6 |
| 20260503195514 | 85 | 32 | 2.0 | 5.0 | 0.00 | 0.00 | 0.00 | 29 | 1004.6 |
| 20260503195010 | 85 | 98 | 2.0 | 5.0 | 0.00 | 0.00 | 0.00 | 28 | 1004.6 |
| 20260503194509 | 85 | 103 | 2.0 | 6.0 | 0.00 | 0.00 | 0.00 | 28 | 1004.5 |
| 20260503194008 | 84 | 150 | 0.0 | 4.0 | 0.00 | 0.00 | 0.00 | 31 | 1004.6 |
| 20260503193510 | 84 | 107 | 0.0 | 3.0 | 0.00 | 0.00 | 0.00 | 32 | 1004.7 |
| 20260503193016 | 83 | 242 | 0.0 | 4.0 | 0.00 | 0.00 | 0.00 | 30 | 1004.8 |
| 20260503192503 | 83 | 281 | 2.0 | 4.0 | 0.00 | 0.00 | 0.00 | 30 | 1004.8 |
| 20260503192002 | 82 | 250 | 0.0 | 3.0 | 0.00 | 0.00 | 0.00 | 35 | 1004.9 |
| 20260503191501 | 81 | 225 | 0.0 | 3.0 | 0.00 | 0.00 | 0.00 | 36 | 1004.9 |
| 20260503191100 | 81 | 91 | 0.0 | 4.0 | 0.00 | 0.00 | 0.00 | 37 | 1005.0 |
| 20260503190558 | 80 | 91 | 1.0 | 4.0 | 0.00 | 0.00 | 0.00 | 37 | 1005.0 |
| 20260503190101 | 80 | 86 | 1.0 | 4.0 | 0.00 | 0.00 | 0.00 | 37 | 1005.1 |
| 20260503185555 | 80 | 104 | 1.0 | 6.0 | 0.00 | 0.01 | 0.00 | 36 | 1005.1 |
| 20260503185055 | 80 | 92 | 3.0 | 6.0 | 0.00 | 0.01 | 0.00 | 37 | 1005.2 |
| 20260503184603 | 79 | 127 | 2.0 | 4.0 | 0.00 | 0.01 | 0.00 | 39 | 1005.3 |
| 20260503184051 | 79 | 153 | 1.0 | 4.0 | 0.00 | 0.01 | 0.00 | 42 | 1005.3 |
| 20260503183549 | 78 | 129 | 2.0 | 4.0 | 0.00 | 0.01 | 0.00 | 41 | 1005.4 |
| 20260503183048 | 78 | 90 | 0.0 | 4.0 | 0.00 | 0.01 | 0.00 | 39 | 1005.5 |
| 20260503182548 | 78 | 107 | 1.0 | 6.0 | 0.00 | 0.01 | 0.00 | 39 | 1005.5 |
| 20260503182046 | 77 | 95 | 3.0 | 6.0 | 0.00 | 0.01 | 0.00 | 39 | 1005.6 |
| 20260503181544 | 77 | 98 | 2.0 | 4.0 | 0.00 | 0.01 | 0.00 | 40 | 1005.6 |
| 20260503181043 | 77 | 96 | 0.0 | 6.0 | 0.00 | 0.01 | 0.00 | 44 | 1005.7 |
| 20260503180541 | 77 | 77 | 3.0 | 6.0 | 0.00 | 0.01 | 0.00 | 43 | 1005.8 |
| 20260503180040 | 76 | 91 | 0.0 | 4.0 | 0.00 | 0.01 | 0.00 | 44 | 1005.9 |
| 20260503175538 | 76 | 63 | 0.0 | 4.0 | 0.00 | 0.01 | 0.00 | 44 | 1005.9 |
| 20260503175037 | 76 | 72 | 2.0 | 4.0 | 0.00 | 0.01 | 0.00 | 43 | 1005.9 |
| 20260503174556 | 75 | 84 | 0.0 | 2.0 | 0.00 | 0.01 | 0.00 | 47 | 1005.9 |
| 20260503174035 | 75 | 85 | 0.0 | 4.0 | 0.00 | 0.01 | 0.00 | 47 | 1005.9 |
| 20260503173533 | 75 | 76 | 2.0 | 4.0 | 0.00 | 0.01 | 0.00 | 49 | 1006.0 |
| 20260503173032 | 74 | 103 | 0.0 | 6.0 | 0.00 | 0.01 | 0.00 | 49 | 1006.0 |
| 20260503172531 | 74 | 66 | 3.0 | 6.0 | 0.00 | 0.01 | 0.00 | 48 | 1006.0 |
| 20260503172032 | 74 | 59 | 0.0 | 4.0 | 0.00 | 0.01 | 0.00 | 49 | 1006.1 |
| 20260503171528 | 74 | 138 | 1.0 | 4.0 | 0.00 | 0.01 | 0.00 | 52 | 1006.1 |
| 20260503171027 | 73 | 132 | 2.0 | 5.0 | 0.00 | 0.01 | 0.00 | 54 | 1006.0 |
| 20260503170528 | 73 | 131 | 2.0 | 5.0 | 0.00 | 0.01 | 0.00 | 53 | 1006.0 |
| 20260503150549 | 58 | 23 | 0.0 | 0.0 | 0.00 | 0.01 | 0.00 | 87 | 1006.4 |
| 20260503131025 | 47 | 303 | 0.0 | 2.0 | 0.00 | 0.01 | 0.00 | 79 | 1006.0 |
| 20260503130521 | 47 | 303 | 0.0 | 3.0 | 0.00 | 0.01 | 0.00 | 79 | 1005.9 |
| 20260503110512 | 48 | 160 | 0.0 | 0.0 | 0.00 | 0.01 | 0.00 | 74 | 1006.3 |
| 20260503081553 | 52 | 160 | 0.0 | 2.0 | 0.00 | 0.01 | 0.00 | 72 | 1006.8 |
| 20260503081048 | 53 | 160 | 0.0 | 0.0 | 0.00 | 0.01 | 0.00 | 72 | 1006.7 |
| 20260503080549 | 53 | 160 | 0.0 | 0.0 | 0.00 | 0.01 | 0.00 | 72 | 1006.8 |
| 20260503072542 | 54 | 160 | 0.0 | 0.0 | 0.00 | 0.01 | 0.00 | 70 | 1006.8 |
| 20260503072043 | 55 | 160 | 0.0 | 0.0 | 0.00 | 0.01 | 0.00 | 70 | 1006.7 |
| 20260503071544 | 55 | 160 | 0.0 | 0.0 | 0.00 | 0.01 | 0.00 | 70 | 1006.8 |
| 20260503071038 | 55 | 160 | 0.0 | 0.0 | 0.00 | 0.01 | 0.00 | 70 | 1006.9 |
| 20260503070537 | 56 | 160 | 0.0 | 0.0 | 0.00 | 0.01 | 0.00 | 70 | 1006.9 |
| 20260503055033 | 59 | 160 | 0.0 | 2.0 | 0.00 | 0.01 | 0.01 | 68 | 1006.8 |
| 20260503054536 | 59 | 132 | 1.0 | 2.0 | 0.00 | 0.01 | 0.01 | 67 | 1007.0 |
| 20260503054034 | 59 | 273 | 0.0 | 1.0 | 0.00 | 0.01 | 0.01 | 68 | 1007.0 |
| 20260503053533 | 59 | 273 | 0.0 | 1.0 | 0.00 | 0.01 | 0.01 | 67 | 1006.9 |
| 20260503053034 | 60 | 273 | 0.0 | 0.0 | 0.00 | 0.01 | 0.01 | 67 | 1007.0 |
| 20260503052533 | 60 | 273 | 0.0 | 0.0 | 0.00 | 0.01 | 0.01 | 67 | 1007.0 |
| 20260503052034 | 60 | 273 | 0.0 | 0.0 | 0.00 | 0.01 | 0.01 | 67 | 1007.1 |
| 20260503051533 | 60 | 273 | 0.0 | 0.0 | 0.00 | 0.01 | 0.01 | 67 | 1007.0 |
| 20260503051032 | 60 | 273 | 0.0 | 0.0 | 0.00 | 0.01 | 0.01 | 67 | 1007.1 |
| 20260503050531 | 60 | 273 | 0.0 | 0.0 | 0.00 | 0.01 | 0.01 | 67 | 1007.1 |
| 20260503050032 | 60 | 273 | 0.0 | 3.0 | 0.00 | 0.01 | 0.01 | 67 | 1007.0 |
| 20260503045532 | 60 | 273 | 0.0 | 3.0 | 0.00 | 0.01 | 0.01 | 67 | 1007.0 |
| 20260503045031 | 61 | 275 | 1.0 | 2.0 | 0.00 | 0.01 | 0.01 | 66 | 1007.0 |
| 20260503044539 | 61 | 269 | 1.0 | 2.0 | 0.00 | 0.01 | 0.01 | 65 | 1007.0 |
| 20260503044031 | 61 | 269 | 0.0 | 2.0 | 0.00 | 0.01 | 0.01 | 65 | 1007.1 |
| 20260503043533 | 61 | 246 | 0.0 | 2.0 | 0.00 | 0.01 | 0.01 | 65 | 1007.1 |
| 20260503043033 | 62 | 167 | 0.0 | 2.0 | 0.00 | 0.01 | 0.01 | 64 | 1007.1 |
| 20260503042530 | 62 | 167 | 1.0 | 3.0 | 0.00 | 0.01 | 0.01 | 63 | 1007.2 |
| 20260503042033 | 62 | 164 | 0.0 | 2.0 | 0.00 | 0.01 | 0.01 | 62 | 1007.2 |
| 20260503041531 | 62 | 286 | 0.0 | 0.0 | 0.00 | 0.01 | 0.01 | 62 | 1007.2 |
| 20260503041030 | 62 | 286 | 0.0 | 0.0 | 0.00 | 0.01 | 0.01 | 62 | 1007.2 |
| 20260503040530 | 63 | 286 | 0.0 | 0.0 | 0.00 | 0.01 | 0.01 | 62 | 1007.1 |
| 20260503040031 | 63 | 286 | 0.0 | 1.0 | 0.00 | 0.01 | 0.01 | 62 | 1007.0 |
| 20260503035529 | 63 | 286 | 0.0 | 5.0 | 0.00 | 0.01 | 0.01 | 61 | 1006.9 |
| 20260503035030 | 63 | 286 | 0.0 | 5.0 | 0.00 | 0.01 | 0.01 | 61 | 1006.8 |
| 20260503034530 | 63 | 296 | 1.0 | 4.0 | 0.00 | 0.01 | 0.01 | 61 | 1006.6 |
| 20260503034032 | 64 | 320 | 1.0 | 3.0 | 0.00 | 0.01 | 0.01 | 60 | 1006.6 |
| 20260503033531 | 64 | 338 | 0.0 | 5.0 | 0.00 | 0.01 | 0.01 | 60 | 1006.6 |
| 20260503033032 | 64 | 295 | 1.0 | 7.0 | 0.00 | 0.01 | 0.01 | 59 | 1006.6 |
| 20260503032530 | 64 | 263 | 3.0 | 6.0 | 0.00 | 0.01 | 0.01 | 58 | 1006.5 |
| 20260503032030 | 65 | 289 | 2.0 | 4.0 | 0.00 | 0.01 | 0.01 | 58 | 1006.6 |
| 20260503031529 | 65 | 290 | 0.0 | 6.0 | 0.00 | 0.01 | 0.01 | 57 | 1006.8 |
| 20260503031030 | 66 | 271 | 2.0 | 7.0 | 0.00 | 0.01 | 0.01 | 57 | 1006.7 |
| 20260503030528 | 66 | 290 | 4.0 | 7.0 | 0.00 | 0.01 | 0.01 | 56 | 1006.4 |
| 20260503030028 | 67 | 262 | 2.0 | 6.0 | 0.00 | 0.01 | 0.01 | 56 | 1006.6 |
| 20260503025527 | 67 | 218 | 1.0 | 4.0 | 0.00 | 0.01 | 0.01 | 56 | 1006.6 |
| 20260503025027 | 67 | 176 | 0.0 | 3.0 | 0.00 | 0.01 | 0.01 | 57 | 1006.6 |
| 20260503024527 | 68 | 250 | 0.0 | 1.0 | 0.00 | 0.01 | 0.01 | 57 | 1006.5 |
| 20260503024028 | 68 | 226 | 0.0 | 2.0 | 0.00 | 0.01 | 0.01 | 57 | 1006.5 |
| 20260503023527 | 68 | 231 | 0.0 | 2.0 | 0.00 | 0.01 | 0.01 | 57 | 1006.3 |
| 20260503023027 | 68 | 198 | 0.0 | 3.0 | 0.00 | 0.01 | 0.01 | 57 | 1006.4 |
| 20260503022528 | 68 | 138 | 0.0 | 12.0 | 0.00 | 0.01 | 0.01 | 57 | 1006.4 |
| 20260503022026 | 68 | 129 | 3.0 | 12.0 | 0.00 | 0.01 | 0.01 | 57 | 1006.3 |
| 20260503021526 | 69 | 148 | 5.0 | 10.0 | 0.00 | 0.01 | 0.01 | 57 | 1006.4 |
| 20260503021026 | 69 | 143 | 1.0 | 5.0 | 0.00 | 0.01 | 0.01 | 57 | 1006.3 |
| 20260503020525 | 69 | 142 | 0.0 | 0.0 | 0.00 | 0.01 | 0.01 | 57 | 1006.0 |
| 20260503020026 | 69 | 155 | 0.0 | 0.0 | 0.00 | 0.01 | 0.01 | 57 | 1005.9 |
| 20260503015526 | 69 | 129 | 0.0 | 0.0 | 0.00 | 0.01 | 0.01 | 57 | 1005.8 |
| 20260503015025 | 69 | 129 | 0.0 | 4.0 | 0.00 | 0.01 | 0.01 | 57 | 1005.7 |
| 20260503014525 | 69 | 129 | 0.0 | 6.0 | 0.00 | 0.01 | 0.01 | 56 | 1005.7 |
| 20260503014025 | 69 | 117 | 2.0 | 6.0 | 0.00 | 0.01 | 0.01 | 56 | 1005.7 |
| 20260503013525 | 69 | 121 | 0.0 | 5.0 | 0.00 | 0.01 | 0.01 | 56 | 1005.7 |
| 20260503013025 | 69 | 127 | 1.0 | 8.0 | 0.00 | 0.01 | 0.01 | 55 | 1005.7 |
| 20260503012525 | 70 | 141 | 1.0 | 8.0 | 0.00 | 0.01 | 0.01 | 55 | 1005.7 |
| 20260503012024 | 70 | 148 | 2.0 | 4.0 | 0.00 | 0.01 | 0.01 | 54 | 1005.6 |
| 20260503011527 | 70 | 145 | 1.0 | 4.0 | 0.00 | 0.01 | 0.01 | 55 | 1005.6 |
| 20260503011026 | 70 | 119 | 2.0 | 4.0 | 0.00 | 0.01 | 0.01 | 53 | 1005.6 |
| 20260503010523 | 70 | 137 | 0.0 | 3.0 | 0.00 | 0.01 | 0.01 | 54 | 1005.5 |
| 20260503010025 | 70 | 137 | 0.0 | 3.0 | 0.00 | 0.01 | 0.01 | 54 | 1005.6 |
| 20260503005523 | 70 | 136 | 1.0 | 3.0 | 0.00 | 0.01 | 0.01 | 54 | 1005.5 |
| 20260503005023 | 70 | 112 | 1.0 | 3.0 | 0.00 | 0.01 | 0.01 | 54 | 1005.5 |
| 20260503004529 | 70 | 100 | 1.0 | 3.0 | 0.00 | 0.01 | 0.01 | 54 | 1005.5 |
| 20260503004024 | 70 | 100 | 0.0 | 3.0 | 0.00 | 0.01 | 0.01 | 53 | 1005.6 |
| 20260503003522 | 71 | 100 | 1.0 | 4.0 | 0.00 | 0.01 | 0.01 | 53 | 1005.6 |
| 20260503003039 | 71 | 118 | 2.0 | 4.0 | 0.00 | 0.01 | 0.01 | 52 | 1005.6 |
| 20260503002522 | 71 | 130 | 2.0 | 3.0 | 0.00 | 0.01 | 0.01 | 50 | 1005.5 |
| 20260503002026 | 71 | 131 | 1.0 | 3.0 | 0.00 | 0.01 | 0.01 | 50 | 1005.5 |
| 20260503001542 | 71 | 130 | 1.0 | 3.0 | 0.00 | 0.01 | 0.01 | 50 | 1005.6 |
| 20260503001020 | 71 | 130 | 0.0 | 4.0 | 0.00 | 0.01 | 0.01 | 51 | 1005.6 |
| 20260503000522 | 71 | 130 | 1.0 | 4.0 | 0.00 | 0.01 | 0.01 | 51 | 1005.7 |
| 20260503000019 | 71 | 132 | 1.0 | 3.0 | 0.00 | 0.01 | 0.01 | 50 | 1005.7 |
| 20260502235619 | 71 | 117 | 0.0 | 0.0 | 0.00 | 0.01 | 0.01 | 50 | 1005.7 |
| 20260502235018 | 71 | 112 | 0.0 | 1.0 | 0.00 | 0.01 | 0.01 | 50 | 1005.8 |
| 20260502234520 | 71 | 114 | 0.0 | 1.0 | 0.00 | 0.01 | 0.01 | 51 | 1005.9 |
| 20260502234019 | 71 | 144 | 0.0 | 3.0 | 0.00 | 0.01 | 0.01 | 50 | 1006.0 |
| 20260502233516 | 71 | 151 | 0.0 | 5.0 | 0.00 | 0.01 | 0.01 | 51 | 1006.1 |
| 20260502233021 | 70 | 138 | 0.0 | 6.0 | 0.00 | 0.01 | 0.01 | 52 | 1006.2 |
| 20260502232513 | 70 | 109 | 1.0 | 6.0 | 0.00 | 0.01 | 0.01 | 53 | 1006.3 |
| 20260502232012 | 70 | 114 | 3.0 | 6.0 | 0.00 | 0.01 | 0.01 | 52 | 1006.4 |
| 20260502231511 | 70 | 137 | 3.0 | 5.0 | 0.00 | 0.01 | 0.01 | 53 | 1006.4 |
| 20260502231010 | 69 | 92 | 2.0 | 8.0 | 0.00 | 0.01 | 0.01 | 53 | 1006.5 |
| 20260502230512 | 69 | 108 | 3.0 | 7.0 | 0.00 | 0.01 | 0.01 | 55 | 1006.5 |
| 20260502230007 | 68 | 93 | 3.0 | 7.0 | 0.00 | 0.01 | 0.01 | 54 | 1006.6 |
| 20260502225507 | 68 | 110 | 2.0 | 7.0 | 0.00 | 0.01 | 0.01 | 54 | 1006.7 |
| 20260502225009 | 68 | 107 | 4.0 | 7.0 | 0.00 | 0.01 | 0.01 | 55 | 1006.7 |
| 20260502224506 | 67 | 113 | 5.0 | 7.0 | 0.00 | 0.01 | 0.01 | 54 | 1006.7 |
| 20260502224006 | 67 | 119 | 3.0 | 6.0 | 0.00 | 0.01 | 0.01 | 54 | 1006.8 |
| 20260502223506 | 67 | 115 | 3.0 | 6.0 | 0.00 | 0.01 | 0.01 | 54 | 1007.0 |
| 20260502223013 | 67 | 113 | 2.0 | 6.0 | 0.00 | 0.01 | 0.01 | 54 | 1007.1 |
| 20260502222503 | 67 | 112 | 2.0 | 6.0 | 0.00 | 0.01 | 0.01 | 54 | 1007.3 |
| 20260502222002 | 67 | 99 | 2.0 | 7.0 | 0.00 | 0.01 | 0.01 | 53 | 1007.3 |
| 20260502221502 | 68 | 97 | 3.0 | 7.0 | 0.00 | 0.01 | 0.01 | 54 | 1007.4 |
| 20260502221002 | 68 | 84 | 4.0 | 6.0 | 0.00 | 0.01 | 0.01 | 52 | 1007.6 |
| 20260502220600 | 68 | 137 | 3.0 | 6.0 | 0.00 | 0.01 | 0.01 | 50 | 1007.7 |
| 20260502220100 | 68 | 42 | 2.0 | 6.0 | 0.00 | 0.01 | 0.01 | 51 | 1007.8 |
| 20260502215559 | 67 | 296 | 1.0 | 5.0 | 0.00 | 0.01 | 0.01 | 52 | 1007.8 |
| 20260502215058 | 67 | 350 | 2.0 | 5.0 | 0.00 | 0.01 | 0.01 | 52 | 1007.8 |
| 20260502214603 | 67 | 5 | 1.0 | 5.0 | 0.00 | 0.01 | 0.01 | 52 | 1007.8 |
| 20260502214054 | 66 | 46 | 1.0 | 8.0 | 0.00 | 0.01 | 0.01 | 53 | 1007.8 |
| 20260502213553 | 66 | 34 | 3.0 | 8.0 | 0.00 | 0.01 | 0.01 | 54 | 1007.9 |
| 20260502213052 | 66 | 348 | 1.0 | 8.0 | 0.00 | 0.01 | 0.01 | 54 | 1007.9 |
| 20260502212551 | 65 | 336 | 3.0 | 8.0 | 0.00 | 0.01 | 0.01 | 53 | 1008.1 |
| 20260502212053 | 65 | 321 | 3.0 | 8.0 | 0.00 | 0.01 | 0.01 | 54 | 1008.2 |
| 20260502211550 | 65 | 28 | 2.0 | 8.0 | 0.00 | 0.01 | 0.01 | 53 | 1008.3 |
| 20260502211049 | 65 | 70 | 0.0 | 5.0 | 0.00 | 0.01 | 0.01 | 54 | 1008.2 |
| 20260502210548 | 65 | 304 | 2.0 | 8.0 | 0.00 | 0.01 | 0.01 | 56 | 1008.3 |
| 20260502210052 | 65 | 360 | 4.0 | 8.0 | 0.00 | 0.01 | 0.01 | 55 | 1008.2 |
| 20260502205546 | 64 | 108 | 1.0 | 4.0 | 0.00 | 0.01 | 0.01 | 56 | 1008.3 |